Weather in Chal-Kezhig

Russia / Tyva Republic     51°17′54″N   93°55′56″E
temp.,
°C
wind,
m/s
gust,
m/s
humid.,
%
clouds,
%
prec.,
mm/h
press.,
hPa
HPBL,
m
5 march, fri
fri501:00−16ssw11750 0.0 103322
04:00−17sse11800 0.0 103222
07:00−18s118510 0.0 103122
10:00−13nne118635 0.0 1029103
13:00−11ne228867 0.0 1027190
16:00−11nnw2292100 0.0 1025132
19:00−13sw2285100 0.0 102822
22:00−14ssw127991 0.0 103121
6 march, sat
sat601:00−16sse118276 0.0 103520
04:00−16s11800 0.0 103521
07:00−18s00887 0.0 103621
10:00−13n118998 0.0 103475
13:00−10nne229199 0.0 1030162
16:00−9nne118888 0.0 1027136
19:00−13ssw118480 0.0 102822
22:00−13ssw117446 0.0 102822
7 march, sun
sun701:00−14sw117673 0.0 102822
04:00−16sw017974 0.0 102721
07:00−17wsw118086 0.0 102821
10:00−12nne118393 0.0 102784
13:00−10nne218893 0.0 1026179
16:00−9nne219192 0.0 1025127
19:00−12sw008996 0.0 102722
22:00−12wsw1180100 0.0 102921
8 march, mon
mon801:00−14ssw117473 0.0 103021
04:00−15ese007592 0.0 103021
07:00−16ssw007973 0.0 103221
10:00−11nne11852 0.0 103077
13:00−8nne22897 0.0 1028183
16:00−7nne218913 0.0 1025131
19:00−11sw118913 0.0 102622
22:00−12sw117628 0.0 102722
9 march, tue
tue901:00−13sw117625 0.0 102722
04:00−13sw117564 0.0 102721
07:00−14nnw118182 0.0 103020
10:00−9nne1180100 0.0 103093
13:00−7ne228967 0.0 1029198
16:00−6nne219035 0.0 1028141
19:00−12ese009944 0.0 103021
22:00−11sw009195 0.0 103021